BLY21B EGCC-EGPH

Flight info

Callsign BLY21B
Flight time 0h 47m
Altitude 24000
Route DESIG1S/05L DESIG DCT DOMIG DCT ULSAX N601 INPIP
Aircraft A320/M-SDE3FGHIRWY/LB1

Departure

Time 2026-05-03 20:15
Airport Manchester Airport (EGCC)

Arrival

Time 2026-05-03 21:02
Airport Edinburgh Airport (EGPH)
Time Latitude Longitude Altitude Speed Heading
2026-05-03 20:15 53.35254 -2.27760 371 ft 152 kts 48°
2026-05-03 20:15 53.35990 -2.26355 946 ft 175 kts 48°
2026-05-03 20:15 53.36829 -2.24749 1566 ft 190 kts 48°
2026-05-03 20:15 53.37718 -2.22996 2215 ft 206 kts 51°
2026-05-03 20:16 53.38628 -2.21021 2836 ft 225 kts 52°
2026-05-03 20:16 53.39598 -2.18876 3779 ft 234 kts 52°
2026-05-03 20:16 53.40608 -2.16642 4692 ft 242 kts 52°
2026-05-03 20:16 53.41627 -2.14412 4977 ft 246 kts 52°
2026-05-03 20:17 53.42744 -2.11994 4999 ft 264 kts 52°
2026-05-03 20:17 53.43838 -2.09639 4991 ft 265 kts 52°
2026-05-03 20:17 53.44975 -2.07197 4997 ft 265 kts 52°
2026-05-03 20:17 53.46113 -2.04754 5000 ft 266 kts 51°
2026-05-03 20:18 53.47246 -2.02343 5000 ft 263 kts 51°
2026-05-03 20:18 53.48356 -1.99977 5002 ft 244 kts 51°
2026-05-03 20:18 53.49388 -1.97797 5003 ft 236 kts 51°
2026-05-03 20:18 53.50410 -1.95652 5012 ft 235 kts 51°
2026-05-03 20:19 53.51428 -1.93508 5005 ft 235 kts 51°
2026-05-03 20:19 53.52441 -1.91377 5004 ft 234 kts 51°
2026-05-03 20:19 53.53413 -1.89173 5004 ft 234 kts 52°
2026-05-03 20:19 53.54653 -1.87317 5392 ft 245 kts 26°
2026-05-03 20:20 53.56260 -1.86857 6198 ft 242 kts 352°
2026-05-03 20:20 53.57777 -1.88024 6902 ft 243 kts 317°
2026-05-03 20:20 53.58701 -1.90397 7560 ft 246 kts 293°
2026-05-03 20:20 53.59426 -1.93008 8228 ft 248 kts 301°
2026-05-03 20:21 53.60467 -1.95295 8860 ft 251 kts 314°
2026-05-03 20:21 53.61841 -1.97133 9488 ft 254 kts 328°
2026-05-03 20:21 53.63348 -1.98702 10109 ft 256 kts 327°
2026-05-03 20:21 53.64866 -2.00288 10711 ft 258 kts 327°
2026-05-03 20:22 53.66395 -2.01888 11295 ft 260 kts 327°
2026-05-03 20:22 53.67937 -2.03513 11860 ft 262 kts 327°
2026-05-03 20:22 53.69482 -2.05146 12393 ft 264 kts 327°
2026-05-03 20:22 53.71047 -2.06800 12931 ft 266 kts 327°
2026-05-03 20:23 53.72606 -2.08448 13431 ft 268 kts 327°
2026-05-03 20:23 53.74211 -2.10091 13922 ft 270 kts 330°
2026-05-03 20:23 53.75934 -2.11401 14388 ft 273 kts 336°
2026-05-03 20:23 53.77713 -2.12608 14947 ft 278 kts 337°
2026-05-03 20:24 53.79499 -2.13820 15790 ft 279 kts 337°
2026-05-03 20:24 53.81306 -2.15052 16570 ft 283 kts 337°
2026-05-03 20:24 53.83200 -2.16345 16997 ft 306 kts 337°
2026-05-03 20:24 53.85251 -2.17746 17333 ft 330 kts 337°
2026-05-03 20:25 53.87433 -2.19240 17605 ft 353 kts 337°
2026-05-03 20:25 53.89786 -2.20852 18052 ft 368 kts 337°
2026-05-03 20:25 53.92182 -2.22493 18753 ft 374 kts 337°
2026-05-03 20:25 53.94615 -2.24162 19537 ft 379 kts 337°
2026-05-03 20:26 53.97042 -2.25832 20304 ft 384 kts 337°
2026-05-03 20:26 53.99545 -2.27555 21034 ft 388 kts 337°
2026-05-03 20:26 54.02057 -2.29283 21723 ft 392 kts 337°
2026-05-03 20:26 54.04597 -2.31029 22383 ft 396 kts 337°
2026-05-03 20:27 54.07115 -2.32764 23037 ft 399 kts 337°
2026-05-03 20:27 54.09706 -2.34556 23648 ft 404 kts 337°
2026-05-03 20:27 54.12312 -2.36368 23901 ft 405 kts 337°
2026-05-03 20:27 54.14902 -2.38169 23966 ft 396 kts 337°
2026-05-03 20:28 54.17435 -2.39928 23972 ft 390 kts 337°
2026-05-03 20:28 54.19942 -2.41668 23971 ft 389 kts 337°
2026-05-03 20:28 54.22447 -2.43409 23971 ft 388 kts 337°
2026-05-03 20:28 54.24946 -2.45152 23971 ft 388 kts 337°
2026-05-03 20:29 54.27432 -2.46888 23971 ft 388 kts 337°
2026-05-03 20:29 54.29929 -2.48632 23973 ft 388 kts 337°
2026-05-03 20:29 54.32427 -2.50378 23980 ft 388 kts 337°
2026-05-03 20:29 54.34922 -2.52126 23980 ft 388 kts 337°
2026-05-03 20:30 54.37417 -2.53875 23981 ft 387 kts 337°
2026-05-03 20:30 54.39916 -2.55630 23982 ft 388 kts 337°
2026-05-03 20:30 54.42414 -2.57386 23986 ft 388 kts 337°
2026-05-03 20:30 54.44911 -2.59143 23989 ft 388 kts 337°
2026-05-03 20:31 54.47300 -2.60824 23992 ft 388 kts 337°
2026-05-03 20:31 54.49833 -2.62608 23993 ft 388 kts 337°
2026-05-03 20:31 54.52295 -2.64348 23994 ft 387 kts 337°
2026-05-03 20:31 54.54818 -2.66132 23997 ft 387 kts 337°
2026-05-03 20:32 54.57279 -2.67873 23999 ft 387 kts 337°
2026-05-03 20:32 54.59786 -2.69650 24000 ft 387 kts 337°
2026-05-03 20:32 54.62276 -2.71420 24002 ft 387 kts 337°
2026-05-03 20:32 54.64764 -2.73192 24007 ft 387 kts 337°
2026-05-03 20:33 54.67239 -2.74960 24005 ft 387 kts 337°
2026-05-03 20:33 54.69724 -2.76739 24008 ft 387 kts 337°
2026-05-03 20:33 54.72214 -2.78522 24011 ft 387 kts 337°
2026-05-03 20:33 54.74705 -2.80305 24013 ft 387 kts 337°
2026-05-03 20:34 54.77190 -2.82085 24015 ft 387 kts 337°
2026-05-03 20:34 54.79679 -2.83869 24019 ft 387 kts 337°
2026-05-03 20:34 54.82163 -2.85651 24016 ft 387 kts 337°
2026-05-03 20:34 54.84649 -2.87441 24019 ft 387 kts 337°
2026-05-03 20:35 54.87117 -2.89218 24016 ft 386 kts 337°
2026-05-03 20:35 54.89603 -2.91010 24016 ft 386 kts 337°
2026-05-03 20:35 54.92086 -2.92802 24017 ft 386 kts 337°
2026-05-03 20:35 54.94566 -2.94594 24018 ft 386 kts 337°
2026-05-03 20:36 54.97056 -2.96394 24010 ft 393 kts 337°
2026-05-03 20:36 54.99603 -2.98242 23998 ft 399 kts 337°
2026-05-03 20:36 55.02170 -3.00109 23999 ft 401 kts 337°
2026-05-03 20:36 55.04748 -3.01984 24001 ft 401 kts 337°
2026-05-03 20:37 55.07321 -3.03857 24008 ft 401 kts 337°
2026-05-03 20:37 55.09899 -3.05742 24007 ft 401 kts 337°
2026-05-03 20:37 55.12461 -3.07622 23994 ft 394 kts 337°
2026-05-03 20:37 55.14938 -3.09435 23482 ft 382 kts 337°
2026-05-03 20:38 55.17368 -3.11209 22985 ft 378 kts 337°
2026-05-03 20:38 55.19782 -3.12974 22459 ft 374 kts 337°
2026-05-03 20:38 55.22168 -3.14726 21928 ft 371 kts 337°
2026-05-03 20:38 55.24540 -3.16470 21403 ft 368 kts 336°
2026-05-03 20:39 55.26819 -3.18147 21203 ft 355 kts 336°
2026-05-03 20:39 55.29090 -3.19599 21045 ft 342 kts 346°
2026-05-03 20:39 55.31410 -3.20111 20880 ft 331 kts 360°
2026-05-03 20:39 55.33674 -3.19828 20756 ft 321 kts
2026-05-03 20:40 55.35866 -3.19477 20629 ft 314 kts
2026-05-03 20:40 55.38040 -3.19134 20302 ft 316 kts
2026-05-03 20:40 55.40232 -3.18792 20008 ft 313 kts
2026-05-03 20:40 55.42370 -3.18463 19888 ft 304 kts
2026-05-03 20:41 55.44442 -3.18144 19757 ft 294 kts
2026-05-03 20:41 55.46441 -3.17835 19631 ft 284 kts
2026-05-03 20:41 55.48376 -3.17533 19508 ft 274 kts
2026-05-03 20:41 55.50223 -3.17244 19245 ft 261 kts
2026-05-03 20:42 55.51972 -3.16979 18745 ft 257 kts
2026-05-03 20:42 55.53745 -3.16726 18215 ft 254 kts
2026-05-03 20:42 55.55501 -3.16478 17685 ft 252 kts
2026-05-03 20:42 55.57242 -3.16231 17158 ft 250 kts
2026-05-03 20:43 55.58968 -3.15987 16635 ft 248 kts
2026-05-03 20:43 55.60681 -3.15754 16125 ft 246 kts
2026-05-03 20:43 55.62339 -3.16123 15625 ft 243 kts 346°
2026-05-03 20:43 55.63992 -3.16848 15096 ft 241 kts 345°
2026-05-03 20:44 55.65595 -3.17585 14584 ft 239 kts 345°
2026-05-03 20:44 55.67196 -3.18325 14076 ft 236 kts 345°
2026-05-03 20:44 55.68735 -3.19040 13876 ft 222 kts 345°
2026-05-03 20:44 55.70194 -3.19721 13522 ft 218 kts 345°
2026-05-03 20:45 55.71647 -3.20399 13115 ft 215 kts 345°
2026-05-03 20:45 55.73094 -3.21077 12546 ft 212 kts 345°
2026-05-03 20:45 55.74498 -3.21832 11936 ft 210 kts 334°
2026-05-03 20:45 55.75530 -3.23584 11373 ft 208 kts 298°
2026-05-03 20:46 55.75781 -3.25971 10824 ft 206 kts 263°
2026-05-03 20:46 55.75185 -3.28244 10256 ft 206 kts 231°
2026-05-03 20:46 55.74197 -3.30090 9657 ft 206 kts 225°
2026-05-03 20:46 55.73167 -3.31865 9087 ft 208 kts 225°
2026-05-03 20:47 55.72210 -3.33730 8692 ft 205 kts 238°
2026-05-03 20:47 55.71567 -3.35932 8222 ft 199 kts 255°
2026-05-03 20:47 55.71408 -3.38347 7639 ft 197 kts 268°
2026-05-03 20:47 55.71366 -3.40774 7046 ft 196 kts 269°
2026-05-03 20:48 55.71337 -3.43183 6474 ft 195 kts 269°
2026-05-03 20:48 55.71308 -3.45563 6050 ft 191 kts 270°
2026-05-03 20:48 55.71279 -3.47942 5887 ft 191 kts 269°
2026-05-03 20:48 55.71250 -3.50299 5489 ft 190 kts 269°
2026-05-03 20:49 55.71224 -3.52672 4894 ft 199 kts 270°
2026-05-03 20:49 55.71545 -3.55037 4493 ft 199 kts 303°
2026-05-03 20:49 55.72572 -3.56641 4019 ft 202 kts 331°
2026-05-03 20:49 55.73854 -3.57794 3568 ft 209 kts 335°
2026-05-03 20:50 55.75141 -3.58865 3373 ft 204 kts 335°
2026-05-03 20:50 55.76403 -3.59910 3249 ft 197 kts 335°
2026-05-03 20:50 55.77617 -3.60916 3153 ft 190 kts 335°
2026-05-03 20:50 55.78804 -3.61901 3085 ft 188 kts 335°
2026-05-03 20:51 55.79949 -3.62852 2998 ft 187 kts 335°
2026-05-03 20:51 55.80731 -3.63501 3000 ft 187 kts 335°
2026-05-03 20:51 55.81910 -3.64482 3004 ft 187 kts 335°
2026-05-03 20:51 55.83147 -3.65126 2998 ft 187 kts
2026-05-03 20:52 55.84347 -3.64401 3011 ft 185 kts 35°
2026-05-03 20:52 55.85420 -3.63122 3010 ft 186 kts 31°
2026-05-03 20:52 55.86541 -3.61980 2999 ft 186 kts 30°
2026-05-03 20:52 55.87672 -3.60858 2941 ft 186 kts 30°
2026-05-03 20:53 55.88798 -3.59741 2938 ft 186 kts 29°
2026-05-03 20:53 55.89864 -3.58411 2969 ft 184 kts 46°
2026-05-03 20:53 55.90382 -3.56419 3034 ft 181 kts 83°
2026-05-03 20:53 55.90103 -3.54323 2623 ft 178 kts 126°
2026-05-03 20:54 55.89060 -3.52913 2518 ft 173 kts 162°
2026-05-03 20:54 55.86824 -3.53784 2937 ft 183 kts 219°
2026-05-03 20:54 55.85794 -3.55125 3061 ft 183 kts 210°
2026-05-03 20:55 55.84722 -3.56224 3017 ft 172 kts 209°
2026-05-03 20:55 55.83697 -3.57274 3007 ft 163 kts 209°
2026-05-03 20:55 55.82745 -3.58251 3003 ft 157 kts 209°
2026-05-03 20:55 55.81799 -3.59220 3006 ft 159 kts 210°
2026-05-03 20:56 55.80689 -3.60360 3017 ft 184 kts 209°
2026-05-03 20:56 55.79681 -3.61489 3007 ft 188 kts 221°
2026-05-03 20:56 55.79065 -3.63496 3003 ft 189 kts 262°
2026-05-03 20:56 55.79326 -3.65761 3002 ft 188 kts 303°
2026-05-03 20:57 55.80305 -3.67359 3016 ft 187 kts 326°
2026-05-03 20:57 55.81424 -3.68348 2997 ft 188 kts 350°
2026-05-03 20:57 55.82694 -3.67988 3006 ft 188 kts 30°
2026-05-03 20:57 55.83606 -3.66352 3013 ft 187 kts 52°
2026-05-03 20:58 55.84585 -3.64809 3010 ft 186 kts 33°
2026-05-03 20:58 55.85663 -3.63652 3007 ft 186 kts 34°
2026-05-03 20:58 55.86557 -3.62012 2981 ft 186 kts 57°
2026-05-03 20:58 55.87229 -3.60052 2818 ft 185 kts 59°
2026-05-03 20:59 55.87915 -3.58041 2578 ft 184 kts 59°
2026-05-03 20:59 55.88559 -3.56153 2355 ft 184 kts 58°
2026-05-03 20:59 55.89221 -3.54213 2120 ft 181 kts 58°
2026-05-03 20:59 55.89850 -3.52403 1894 ft 161 kts 58°
2026-05-03 21:00 55.90412 -3.50759 1736 ft 150 kts 59°
2026-05-03 21:00 55.90755 -3.49718 1568 ft 145 kts 59°
2026-05-03 21:00 55.91438 -3.47692 1300 ft 143 kts 58°
2026-05-03 21:00 55.91952 -3.46189 1051 ft 142 kts 58°
2026-05-03 21:01 55.92462 -3.44697 841 ft 141 kts 59°
2026-05-03 21:01 55.92965 -3.43203 715 ft 140 kts 58°
2026-05-03 21:01 55.93475 -3.41713 567 ft 141 kts 58°
2026-05-03 21:01 55.93984 -3.40225 359 ft 140 kts 59°
2026-05-03 21:02 55.94483 -3.38754 160 ft 138 kts 59°
2026-05-03 21:02 55.94889 -3.37554 111 ft 69 kts 59°
2026-05-03 21:02 55.95100 -3.36939 108 ft 42 kts 58°
2026-05-03 21:02 55.95237 -3.36543 104 ft 23 kts 59°
2026-05-03 21:03 55.95229 -3.36390 102 ft 17 kts 146°
2026-05-03 21:03 55.95167 -3.36324 102 ft 0 kts 149°
2026-05-03 21:03 55.95167 -3.36323 102 ft 1 kts 149°
2026-05-03 21:03 55.95162 -3.36318 104 ft 0 kts 149°
2026-05-03 21:04 55.95159 -3.36315 104 ft 4 kts 149°
2026-05-03 21:04 55.95141 -3.36288 104 ft 7 kts 121°
2026-05-03 21:04 55.95115 -3.36119 104 ft 11 kts 108°
2026-05-03 21:04 55.95109 -3.36087 105 ft 2 kts 109°
2026-05-03 21:05 55.95101 -3.36052 105 ft 4 kts 109°
2026-05-03 21:05 55.95089 -3.35988 106 ft 3 kts 109°
2026-05-03 21:05 55.95063 -3.35895 107 ft 16 kts 118°
2026-05-03 21:05 55.94970 -3.35862 108 ft 16 kts 187°
2026-05-03 21:06 55.94905 -3.35765 108 ft 7 kts 117°
2026-05-03 21:06 55.94890 -3.35717 108 ft 7 kts 119°
2026-05-03 21:06 55.94859 -3.35635 108 ft 3 kts 153°
2026-05-03 21:06 55.94852 -3.35658 107 ft 4 kts 255°
2026-05-03 21:07 55.94837 -3.35717 107 ft 2 kts 216°
2026-05-03 21:07 55.94828 -3.35730 106 ft 1 kts 217°
2026-05-03 21:07 55.94819 -3.35740 107 ft 1 kts 211°
2026-05-03 21:07 55.94816 -3.35743 108 ft 1 kts 210°
2026-05-03 21:08 55.94811 -3.35748 108 ft 1 kts 210°
2026-05-03 21:08 55.94809 -3.35750 108 ft 0 kts 209°